TimePDT,TemperatureF,Dew PointF,Humidity,Sea Level PressureIn,VisibilityMPH,Wind Direction,Wind SpeedMPH,Gust SpeedMPH,PrecipitationIn,Events,Conditions,WindDirDegrees,DateUTC
12:54 AM,55.9,53.1,90,29.89,10.0,WSW,3.5,-,N/A,,Overcast,250,2012-10-20 07:54:00
1:18 AM,53.6,51.8,94,29.91,10.0,West,5.8,-,N/A,,Scattered Clouds,260,2012-10-20 08:18:00
1:42 AM,53.6,51.8,94,29.91,10.0,West,4.6,-,N/A,,Mostly Cloudy,260,2012-10-20 08:42:00
1:54 AM,55.0,52.0,89,29.89,10.0,WNW,4.6,-,N/A,,Overcast,290,2012-10-20 08:54:00
2:54 AM,54.0,51.1,90,29.89,10.0,Calm,Calm,-,N/A,,Overcast,0,2012-10-20 09:54:00
3:21 AM,53.6,51.8,94,29.91,7.0,Calm,Calm,-,N/A,,Partly Cloudy,0,2012-10-20 10:21:00
3:31 AM,51.8,51.8,100,29.90,1.8,Calm,Calm,-,N/A,,Partly Cloudy,0,2012-10-20 10:31:00
3:54 AM,52.0,50.0,93,29.88,4.0,Calm,Calm,-,N/A,,Clear,0,2012-10-20 10:54:00
3:58 AM,51.8,48.2,88,29.90,1.2,Calm,Calm,-,N/A,,Partly Cloudy,0,2012-10-20 10:58:00
4:00 AM,50.0,48.2,94,29.90,0.8,Calm,Calm,-,N/A,,Mist,0,2012-10-20 11:00:00
4:09 AM,51.8,48.2,88,29.89,0.5,Calm,Calm,-,N/A,Fog,Fog,0,2012-10-20 11:09:00
4:24 AM,51.8,50.0,94,29.89,1.0,Calm,Calm,-,N/A,,Mist,0,2012-10-20 11:24:00
4:28 AM,51.8,50.0,94,29.89,4.0,Calm,Calm,-,N/A,,Mostly Cloudy,0,2012-10-20 11:28:00
4:54 AM,52.0,51.1,97,29.87,8.0,WSW,3.5,-,N/A,,Overcast,240,2012-10-20 11:54:00
5:23 AM,53.6,51.8,94,29.90,1.8,Calm,Calm,-,N/A,,Overcast,0,2012-10-20 12:23:00
5:28 AM,53.6,51.8,94,29.89,0.5,Calm,Calm,-,N/A,Fog,Fog,0,2012-10-20 12:28:00
5:54 AM,53.1,53.1,100,29.86,0.2,Calm,Calm,-,N/A,Fog,Fog,0,2012-10-20 12:54:00
6:08 AM,53.6,51.8,94,29.89,1.0,Calm,Calm,-,N/A,,Overcast,0,2012-10-20 13:08:00
6:26 AM,53.6,53.6,100,29.89,3.0,Calm,Calm,-,N/A,,Overcast,0,2012-10-20 13:26:00
6:54 AM,54.0,52.0,93,29.87,8.0,NW,3.5,-,N/A,,Overcast,310,2012-10-20 13:54:00
7:54 AM,54.0,53.1,97,29.86,4.0,WSW,4.6,-,N/A,,Overcast,250,2012-10-20 14:54:00
8:54 AM,54.0,52.0,93,29.88,3.0,West,5.8,-,N/A,,Overcast,260,2012-10-20 15:54:00
9:07 AM,53.6,51.8,94,29.90,0.5,WNW,5.8,-,N/A,Fog,Fog,290,2012-10-20 16:07:00
9:21 AM,55.4,53.6,94,29.90,0.8,WNW,5.8,-,N/A,,Overcast,300,2012-10-20 16:21:00
9:54 AM,55.0,54.0,96,29.88,1.2,Calm,Calm,-,N/A,,Overcast,0,2012-10-20 16:54:00
10:27 AM,55.4,53.6,94,29.90,3.0,Calm,Calm,-,N/A,,Overcast,0,2012-10-20 17:27:00
10:54 AM,57.9,55.0,90,29.87,8.0,Variable,3.5,-,N/A,,Overcast,0,2012-10-20 17:54:00
11:02 AM,59.0,55.4,88,29.89,10.0,West,4.6,-,N/A,,Overcast,280,2012-10-20 18:02:00
11:51 AM,60.8,55.4,82,29.88,10.0,SW,4.6,-,N/A,,Mostly Cloudy,220,2012-10-20 18:51:00
11:54 AM,62.1,55.9,80,29.86,10.0,SW,4.6,-,N/A,,Scattered Clouds,230,2012-10-20 18:54:00
12:15 PM,64.4,55.4,73,29.87,10.0,South,5.8,-,N/A,,Scattered Clouds,190,2012-10-20 19:15:00
12:54 PM,68.0,55.9,65,29.83,10.0,South,9.2,-,N/A,,Clear,190,2012-10-20 19:54:00
1:54 PM,70.0,55.9,61,29.80,10.0,SSW,12.7,-,N/A,,Clear,210,2012-10-20 20:54:00
2:54 PM,71.1,55.0,57,29.77,10.0,SSW,17.3,-,N/A,,Clear,200,2012-10-20 21:54:00
3:54 PM,73.9,48.0,40,29.76,10.0,WSW,10.4,-,N/A,,Clear,250,2012-10-20 22:54:00
4:54 PM,69.1,46.9,45,29.76,10.0,SW,13.8,-,N/A,,Clear,220,2012-10-20 23:54:00
5:54 PM,64.9,48.0,54,29.76,10.0,SSW,9.2,-,N/A,,Clear,210,2012-10-21 00:54:00
6:54 PM,60.1,48.0,64,29.76,10.0,South,8.1,-,N/A,,Clear,190,2012-10-21 01:54:00
7:54 PM,59.0,48.9,69,29.77,10.0,SSW,10.4,-,N/A,,Clear,210,2012-10-21 02:54:00
8:54 PM,57.9,48.9,72,29.78,10.0,SSW,12.7,-,N/A,,Clear,200,2012-10-21 03:54:00
9:54 PM,55.9,48.0,75,29.80,10.0,SW,9.2,-,N/A,,Clear,230,2012-10-21 04:54:00
10:54 PM,57.0,46.9,69,29.81,10.0,WSW,11.5,-,N/A,,Clear,240,2012-10-21 05:54:00
11:54 PM,55.0,46.0,72,29.81,10.0,SW,11.5,-,N/A,,Clear,230,2012-10-21 06:54:00